Andalusia, AL

1:54 AM CDT on April 25, 2018 (GMT -0500)
Andalusia

Weather History for K79J - February, 2014

Change the Weather History Date:

Wednesday, February 5, 2014

  Actual Average (KCEW) Record (KCEW)
Temperature  
Mean Temperature 56 °F -  
Max Temperature 72 °F 63 °F 78 °F (2008)
Min Temperature 39 °F 39 °F 16 °F (2009)
Degree Days  
Heating Degree Days 8    
Growing Degree Days 6 (Base 50)    
Moisture  
Dew Point 49 °F    
Average Humidity 72    
Maximum Humidity 88    
Minimum Humidity 50    
Precipitation  
Precipitation 0.25 in - - ()
Sea Level Pressure  
Sea Level Pressure 30.07 in    
Wind  
Wind Speed 13 mph (NNW)    
Max Wind Speed 24 mph    
Max Gust Speed 29 mph    
Visibility 9 miles    
Events Rain    
Averages and records for this station are not official NWS values.
T = Trace of Precipitation, MM = Missing Value Source: NWS Daily Summary

Daily Weather History Graph

Daily Weather History Graph

Search for Another Location

Airport or City:

Astronomy

Feb. 05, 2014 Rise Set
Actual Time 6:35 AM CST 5:24 PM CST
Civil Twilight 6:10 AM CST 5:49 PM CST
Nautical Twilight 5:41 AM CST 6:18 PM CST
Astronomical Twilight 5:12 AM CST 6:46 PM CST
Moon 10:16 AM CST (2/5) 11:49 PM CST (2/5)
Length of Visible Light 11h 39m
Length of Day
10h 49m
Waxing Crescent, 39% of the Moon is Illuminated
Feb 5
Waxing Crescent
Feb 6
First Quarter
Feb 14
Full
Feb 22
Last Quarter
Mar 1
New

Hourly Weather History & Observations

Time (CST) Temp. Windchill Dew Point Humidity Pressure Visibility Wind Dir Wind Speed Gust Speed Precip Events Conditions
12:56 AM 70.0 °F - 66.0 °F 87% 29.89 in 6.0 mi SSW 11.5 mph 16.1 mph N/A   Overcast
1:38 AM 71.6 °F - 66.2 °F 83% 29.89 in 7.0 mi SW 10.4 mph 21.9 mph 0.01 in Rain Light Rain
1:56 AM 71.1 °F - 66.9 °F 87% 29.88 in 7.0 mi SW 12.7 mph 18.4 mph 0.03 in Rain Light Rain
2:06 AM 71.6 °F - 66.2 °F 83% 29.90 in 8.0 mi SW 13.8 mph 26.5 mph 0.01 in Rain Light Rain
2:56 AM 72.0 °F - 66.0 °F 81% 29.92 in 5.0 mi NW 24.2 mph 28.8 mph 0.08 in Rain Light Rain
3:00 AM 69.8 °F - 64.4 °F 83% 29.92 in 1.8 mi NW 18.4 mph 28.8 mph 0.10 in Rain Heavy Rain
3:07 AM 69.8 °F - 64.4 °F 83% 29.93 in 2.0 mi NW 15.0 mph 26.5 mph 0.11 in Rain Rain
3:11 AM 69.8 °F - 64.4 °F 83% 29.93 in 5.0 mi NW 19.6 mph 27.6 mph 0.12 in Rain Rain
3:56 AM 68.0 °F - 62.1 °F 81% 29.94 in 10.0 mi NW 12.7 mph 25.3 mph 0.14 in Rain Light Rain
4:12 AM 66.2 °F - 62.6 °F 88% 29.95 in 10.0 mi WNW 11.5 mph - 0.00 in   Overcast
4:56 AM 66.0 °F - 61.0 °F 84% 29.96 in 10.0 mi WNW 11.5 mph - 0.00 in   Mostly Cloudy
5:54 AM 62.6 °F - 57.2 °F 82% 30.00 in 10.0 mi NNW 12.7 mph - N/A   Overcast
5:56 AM 63.0 °F - 57.0 °F 81% 29.99 in 10.0 mi NNW 10.4 mph - N/A   Overcast
5:59 AM 62.6 °F - 57.2 °F 82% 30.00 in 10.0 mi NNW 10.4 mph - N/A   Overcast
6:02 AM 62.6 °F - 57.2 °F 82% 30.00 in 10.0 mi NNW 10.4 mph - N/A   Overcast
6:18 AM 62.6 °F - 55.4 °F 77% 30.01 in 10.0 mi NNW 12.7 mph - N/A   Overcast
6:56 AM 60.1 °F - 54.0 °F 80% 30.02 in 10.0 mi NNW 12.7 mph - 0.00 in   Overcast
7:19 AM 59.0 °F - 53.6 °F 82% 30.04 in 10.0 mi NNW 15.0 mph 21.9 mph N/A   Overcast
7:38 AM 59.0 °F - 51.8 °F 77% 30.05 in 10.0 mi North 16.1 mph 20.7 mph N/A   Overcast
7:56 AM 57.9 °F - 51.1 °F 78% 30.06 in 10.0 mi NNW 15.0 mph 21.9 mph N/A   Overcast
8:56 AM 55.9 °F - 48.0 °F 75% 30.09 in 10.0 mi NNW 11.5 mph - N/A   Overcast
9:56 AM 54.0 °F - 46.9 °F 77% 30.13 in 10.0 mi NNW 12.7 mph - N/A   Overcast
10:29 AM 53.6 °F - 42.8 °F 67% 30.14 in 10.0 mi North 17.3 mph 23.0 mph N/A   Overcast
10:56 AM 54.0 °F - 44.1 °F 69% 30.14 in 10.0 mi North 16.1 mph - N/A   Overcast
11:56 AM 55.0 °F - 42.1 °F 62% 30.12 in 10.0 mi North 17.3 mph - N/A   Overcast
12:27 PM 55.4 °F - 41.0 °F 58% 30.12 in 10.0 mi North 12.7 mph 23.0 mph N/A   Scattered Clouds
12:56 PM 55.9 °F - 39.9 °F 55% 30.11 in 10.0 mi North 17.3 mph 23.0 mph N/A   Partly Cloudy
1:56 PM 55.0 °F - 37.9 °F 53% 30.12 in 10.0 mi North 18.4 mph 23.0 mph N/A   Clear
2:56 PM 54.0 °F - 36.0 °F 51% 30.13 in 10.0 mi North 16.1 mph 23.0 mph N/A   Clear
3:56 PM 53.1 °F - 35.1 °F 50% 30.14 in 10.0 mi NNE 13.8 mph - N/A   Partly Cloudy
4:56 PM 50.0 °F - 35.1 °F 57% 30.17 in 10.0 mi NNE 11.5 mph - N/A   Partly Cloudy
5:44 PM 48.2 °F - 33.8 °F 58% 30.20 in 10.0 mi North 13.8 mph 19.6 mph N/A   Mostly Cloudy
5:56 PM 46.9 °F - 34.0 °F 61% 30.19 in 10.0 mi North 12.7 mph - N/A   Overcast
6:56 PM 46.0 °F 39.9 °F 32.0 °F 58% 30.22 in 10.0 mi North 13.8 mph 19.6 mph N/A   Overcast
7:56 PM 45.0 °F 39.3 °F 32.0 °F 60% 30.23 in 10.0 mi North 11.5 mph 23.0 mph N/A   Overcast
8:56 PM 44.1 °F 38.6 °F 30.9 °F 60% 30.25 in 10.0 mi North 10.4 mph - N/A   Overcast
9:56 PM 43.0 °F 36.4 °F 28.9 °F 58% 30.25 in 10.0 mi NNE 12.7 mph 21.9 mph N/A   Scattered Clouds
10:56 PM 41.0 °F 35.8 °F 30.0 °F 65% 30.26 in 10.0 mi NNE 8.1 mph - N/A   Clear
11:56 PM 39.0 °F 35.7 °F 28.9 °F 67% 30.25 in 10.0 mi North 4.6 mph - N/A   Clear